Weather History for KGFK - November, 2013

Change the Weather History Date:

Sunday, November 17, 2013

  Actual Average Record
Temperature  
Mean Temperature 31 °F 25 °F  
Max Temperature 36 °F 34 °F 64 °F (1953)
Min Temperature 25 °F 16 °F -5 °F (1959)
Degree Days  
Heating Degree Days 34 40  
Month to date heating degree days 569 595  
Since 1 July heating degree days 1472 1626  
Cooling Degree Days 0 0  
Month to date cooling degree days 0 0  
Year to date cooling degree days 487 379  
Moisture  
Dew Point 26 °F    
Average Humidity 80    
Maximum Humidity 92    
Minimum Humidity 68    
Precipitation  
Precipitation 0.02 in 0.04 in 1.02 in (1958)
Month to date precipitation 0.06 0.64  
Year to date precipitation 18.74 19.89  
Snow  
Snow 0.00 in 0.30 in 8.00 in (1958)
Month to date snowfall 0.3 3.6  
Since 1 July snowfall 0.3 5.1  
Since 1 September snowfall 0.3 5.1  
Snow Depth 0.00 in    
Sea Level Pressure  
Sea Level Pressure 29.59 in    
Wind  
Wind Speed 18 mph (NNW)    
Max Wind Speed 28 mph    
Max Gust Speed 33 mph    
Visibility 9 miles    
Events Rain , Snow    
T = Trace of Precipitation, MM = Missing Value Source: NWS Daily Summary

Daily Weather History Graph

Daily Weather History Graph

Search for Another Location

Airport or City:

Trip Planner

Search our weather history database for the weather conditions in past years. The results will help you decide how hot, cold, wet, or windy it might be!

Date:

Astronomy

Nov. 17, 2013 Rise Set
Actual Time 7:38 AM CST 4:48 PM CST
Civil Twilight 7:04 AM CST 5:22 PM CST
Nautical Twilight 6:26 AM CST 6:00 PM CST
Astronomical Twilight 5:49 AM CST 6:37 PM CST
Moon 5:06 PM CST (11/17) 7:32 AM CST (11/17)
Length of Visible Light 10h 18m
Length of Day
9h 10m
Full, 100% of the Moon is Illuminated
Nov 17
Full
Nov 25
Last Quarter
Dec 2
New
Dec 9
First Quarter
Dec 17
Full

Hourly Weather History & Observations

Time (CST) Temp. Windchill Dew Point Humidity Pressure Visibility Wind Dir Wind Speed Gust Speed Precip Events Conditions
12:00 AM 35.6 °F 27.1 °F 33.8 °F 93% 29.32 in 6.0 mi NNW 12.7 mph - 0.00 in Rain Light Rain
12:12 AM 35.6 °F 27.1 °F 33.8 °F 93% 29.32 in 5.0 mi NNW 12.7 mph - 0.00 in Rain Light Rain
12:53 AM 36.0 °F 28.0 °F 34.0 °F 93% 29.35 in 5.0 mi NNW 11.5 mph - 0.00 in Rain Light Rain
1:53 AM 35.1 °F 27.4 °F 34.0 °F 96% 29.36 in 8.0 mi NNW 10.4 mph - 0.01 in Rain Light Rain
2:53 AM 34.0 °F 25.0 °F 33.1 °F 96% 29.38 in 10.0 mi NNW 12.7 mph - 0.00 in   Overcast
3:53 AM 33.1 °F 24.9 °F 32.0 °F 96% 29.38 in 9.0 mi NNW 10.4 mph - 0.01 in Rain Light Rain
4:53 AM 32.0 °F 22.5 °F 30.9 °F 96% 29.41 in 10.0 mi NNW 12.7 mph - 0.00 in   Overcast
5:53 AM 32.0 °F 21.2 °F 30.0 °F 92% 29.42 in 9.0 mi NNW 16.1 mph - 0.00 in Snow Light Snow
6:53 AM 30.9 °F 19.8 °F 28.9 °F 92% 29.44 in 10.0 mi NNW 16.1 mph 23.0 mph 0.00 in   Overcast
7:53 AM 30.9 °F 19.1 °F 28.0 °F 89% 29.46 in 10.0 mi NNW 18.4 mph 25.3 mph N/A   Overcast
8:53 AM 30.0 °F 17.2 °F 27.0 °F 88% 29.49 in 10.0 mi NNW 20.7 mph 27.6 mph N/A   Overcast
9:53 AM 30.0 °F 17.2 °F 26.1 °F 85% 29.52 in 10.0 mi NNW 20.7 mph 28.8 mph N/A   Overcast
10:38 AM 30.2 °F 18.1 °F 26.6 °F 86% 29.51 in 10.0 mi NNW 18.4 mph 29.9 mph N/A   Overcast
10:53 AM 30.0 °F 16.9 °F 26.1 °F 85% 29.55 in 10.0 mi NNW 21.9 mph 29.9 mph N/A   Overcast
11:53 AM 28.9 °F 16.1 °F 24.1 °F 82% 29.57 in 10.0 mi NNW 19.6 mph 28.8 mph N/A   Overcast
12:44 PM 28.4 °F 14.1 °F 24.8 °F 86% 29.57 in 10.0 mi NNW 24.2 mph 27.6 mph N/A   Overcast
12:53 PM 28.9 °F 16.1 °F 24.1 °F 82% 29.60 in 10.0 mi NNW 19.6 mph 25.3 mph N/A   Overcast
1:53 PM 28.9 °F 15.8 °F 23.0 °F 78% 29.64 in 10.0 mi NNW 20.7 mph 27.6 mph N/A   Overcast
2:53 PM 28.0 °F 14.3 °F 21.9 °F 78% 29.67 in 10.0 mi NNW 21.9 mph 29.9 mph N/A   Overcast
3:53 PM 28.0 °F 14.9 °F 21.0 °F 75% 29.71 in 10.0 mi NNW 19.6 mph 26.5 mph N/A   Overcast
4:53 PM 27.0 °F 12.8 °F 19.9 °F 75% 29.75 in 10.0 mi NNW 21.9 mph - N/A   Overcast
5:53 PM 27.0 °F 13.2 °F 21.0 °F 78% 29.79 in 10.0 mi NNW 20.7 mph 26.5 mph N/A   Overcast
6:53 PM 26.1 °F 13.1 °F 19.9 °F 78% 29.83 in 10.0 mi NW 17.3 mph 24.2 mph N/A   Overcast
7:53 PM 26.1 °F 12.3 °F 19.0 °F 75% 29.85 in 10.0 mi NW 19.6 mph 24.2 mph N/A   Overcast
8:53 PM 26.1 °F 12.7 °F 19.0 °F 75% 29.87 in 10.0 mi NNW 18.4 mph 24.2 mph N/A   Overcast
9:53 PM 26.1 °F 14.0 °F 19.0 °F 75% 29.89 in 10.0 mi NW 15.0 mph - N/A   Overcast
10:53 PM 26.1 °F 12.3 °F 18.0 °F 71% 29.91 in 10.0 mi NNW 19.6 mph 24.2 mph N/A   Overcast
11:53 PM 25.0 °F 11.3 °F 18.0 °F 75% 29.94 in 10.0 mi NW 18.4 mph 21.9 mph N/A   Overcast